Grand Junction, CO

6:29 AM MDT on August 22, 2019 (GMT -0600)
Walker

Weather History for KGJT - May, 2019

Change the Weather History Date:

Tuesday, May 7, 2019

  Actual Average Record
Temperature  
Mean Temperature 63 °F 59 °F  
Max Temperature 76 °F 73 °F 90 °F (1966)
Min Temperature 49 °F 45 °F 27 °F (1968)
Degree Days  
Heating Degree Days 2 7  
Month to date heating degree days 68 55  
Since 1 July heating degree days 5465 5489  
Cooling Degree Days 0 1  
Month to date cooling degree days 0 4  
Year to date cooling degree days 1 7  
Growing Degree Days 12 (Base 50)    
Moisture  
Dew Point 29 °F    
Average Humidity 36    
Maximum Humidity 61    
Minimum Humidity 11    
Precipitation  
Precipitation 0.00 in 0.03 in 0.32 in (1993)
Month to date precipitation 0.04 0.22  
Year to date precipitation 5.09 3.17  
Snow  
Snow 0.00 in 0.00 in 0.00 in (2018)
Month to date snowfall 0.0 0.0  
Since 1 July snowfall 17.4 19.0  
Snow Depth 0.00 in    
Sea Level Pressure  
Sea Level Pressure 29.67 in    
Wind  
Wind Speed 11 mph (SSE)    
Max Wind Speed 35 mph    
Max Gust Speed 44 mph    
Visibility 10 miles    
Events      
T = Trace of Precipitation, MM = Missing Value Source: NWS Daily Summary

Daily Weather History Graph

Daily Weather History Graph

Search for Another Location

Airport or City:

Astronomy

May. 07, 2019 Rise Set
Actual Time 6:09 AM MDT 8:12 PM MDT
Civil Twilight 5:39 AM MDT 8:42 PM MDT
Nautical Twilight 5:03 AM MDT 9:18 PM MDT
Astronomical Twilight 4:25 AM MDT 9:57 PM MDT
Moon 8:18 AM MDT (5/7) 11:15 PM MDT (5/7)
Length of Visible Light 15h 02m
Length of Day
14h 03m
Waxing Crescent, 9% of the Moon is Illuminated
May 7
Waxing Crescent
May 11
First Quarter
May 18
Full
May 26
Last Quarter
Jun 3
New

Hourly Weather History & Observations

Time (MDT) Temp. Dew Point Humidity Pressure Visibility Wind Dir Wind Speed Gust Speed Precip Events Conditions
12:53 AM 55.9 °F 39.0 °F 53% 29.71 in 10.0 mi NNE 9.2 mph - N/A   Clear
1:53 AM 54.0 °F 39.9 °F 59% 29.71 in 10.0 mi ENE 4.6 mph - N/A   Clear
2:53 AM 55.0 °F 39.0 °F 55% 29.69 in 10.0 mi ENE 4.6 mph - N/A   Clear
3:53 AM 54.0 °F 39.9 °F 59% 29.69 in 10.0 mi East 3.5 mph - N/A   Clear
4:53 AM 55.9 °F 34.0 °F 44% 29.69 in 10.0 mi East 9.2 mph - N/A   Clear
5:53 AM 57.0 °F 28.9 °F 34% 29.69 in 10.0 mi ESE 12.7 mph - N/A   Clear
6:53 AM 52.0 °F 28.0 °F 40% 29.72 in 10.0 mi ESE 9.2 mph - N/A   Clear
7:53 AM 59.0 °F 26.1 °F 28% 29.71 in 10.0 mi SE 12.7 mph 20.7 mph N/A   Clear
8:53 AM 63.0 °F 21.9 °F 21% 29.72 in 10.0 mi SE 13.8 mph - N/A   Clear
9:53 AM 68.0 °F 23.0 °F 18% 29.70 in 10.0 mi East 11.5 mph - N/A   Clear
10:53 AM 71.1 °F 21.9 °F 16% 29.68 in 10.0 mi SSE 15.0 mph 25.3 mph N/A   Clear
11:53 AM 73.0 °F 27.0 °F 18% 29.66 in 10.0 mi West 11.5 mph 20.7 mph N/A   Clear
12:53 PM 73.0 °F 21.9 °F 15% 29.64 in 10.0 mi WSW 11.5 mph - N/A   Partly Cloudy
1:27 PM 73.9 °F 19.0 °F 13% 29.79 in 10.0 mi South 16.1 mph 26.5 mph N/A   Clear
1:53 PM 75.0 °F 19.9 °F 13% 29.61 in 10.0 mi South 16.1 mph 26.5 mph N/A   Clear
2:53 PM 75.0 °F 17.1 °F 11% 29.60 in 10.0 mi SW 13.8 mph 25.3 mph N/A   Clear
3:53 PM 75.0 °F 19.0 °F 12% 29.57 in 10.0 mi SSW 18.4 mph 24.2 mph N/A   Clear
4:53 PM 73.0 °F 24.1 °F 16% 29.55 in 10.0 mi NW 15.0 mph 20.7 mph N/A   Clear
5:53 PM 72.0 °F 27.0 °F 19% 29.56 in 10.0 mi West 28.8 mph 38.0 mph N/A   Mostly Cloudy
6:53 PM 63.0 °F 35.1 °F 35% 29.65 in 10.0 mi WNW 19.6 mph 28.8 mph N/A   Scattered Clouds
7:53 PM 60.1 °F 36.0 °F 41% 29.66 in 10.0 mi NW 9.2 mph - N/A   Clear
8:53 PM 59.0 °F 34.0 °F 39% 29.67 in 10.0 mi NNW 3.5 mph - N/A   Partly Cloudy
9:53 PM 55.0 °F 36.0 °F 49% 29.68 in 10.0 mi NW 4.6 mph - N/A   Scattered Clouds
10:53 PM 51.1 °F 37.0 °F 59% 29.68 in 10.0 mi Calm Calm - N/A   Partly Cloudy
11:53 PM 50.0 °F 37.0 °F 61% 29.68 in 10.0 mi Calm Calm - N/A   Partly Cloudy